iso_date,epoch_date,Year,Hour,Min,DOY,POS_DOY,Lat,Lon,BP,Ts,Ta,has_bp,has_ts,has_ta,BuoyID,Buoy_Type,Buoy_Owner,Logistics,Hemisphere
2016-06-22T18:00:00Z,1466618400,2016,18,0,174.75,174.75,58.9976,-167.38541,1013.3,7.63,-999.0,yes,yes,no,300234063324420,BD2GI,AOML,NORSEMAN_II,North
2016-06-22T19:00:28Z,1466622029,2016,19,0,174.792,174.792,59.002,-167.3748,1013.0,7.63,-999.0,yes,yes,no,300234063324420,BD2GI,AOML,NORSEMAN_II,North
2016-06-22T19:59:31Z,1466625571,2016,20,0,174.833,174.833,59.0046,-167.36639,1012.6,7.63,-999.0,yes,yes,no,300234063324420,BD2GI,AOML,NORSEMAN_II,North
2016-06-22T21:00:00Z,1466629200,2016,21,0,174.875,174.875,59.006,-167.36259,1012.1,7.6,-999.0,yes,yes,no,300234063324420,BD2GI,AOML,NORSEMAN_II,North
2016-06-22T22:00:28Z,1466632829,2016,22,0,174.917,174.917,59.0062,-167.3642,1011.8,7.56,-999.0,yes,yes,no,300234063324420,BD2GI,AOML,NORSEMAN_II,North
2016-06-22T22:59:31Z,1466636371,2016,23,0,174.958,174.958,59.0058,-167.3738,1011.1,7.56,-999.0,yes,yes,no,300234063324420,BD2GI,AOML,NORSEMAN_II,North
2016-06-23T00:00:00Z,1466640000,2016,0,0,175.0,175.0,59.0068,-167.39121,1010.6,7.53,-999.0,yes,yes,no,300234063324420,BD2GI,AOML,NORSEMAN_II,North
2016-06-23T01:00:28Z,1466643629,2016,1,0,175.042,175.042,59.0102,-167.4136,1010.1,7.49,-999.0,yes,yes,no,300234063324420,BD2GI,AOML,NORSEMAN_II,North
2016-06-23T01:59:31Z,1466647171,2016,2,0,175.083,175.083,59.0168,-167.437,1009.4,7.53,-999.0,yes,yes,no,300234063324420,BD2GI,AOML,NORSEMAN_II,North
2016-06-23T03:00:00Z,1466650800,2016,3,0,175.125,175.125,59.0266,-167.4576,1008.9,7.53,-999.0,yes,yes,no,300234063324420,BD2GI,AOML,NORSEMAN_II,North
2016-06-23T04:00:28Z,1466654429,2016,4,0,175.167,175.167,59.0392,-167.4708,1008.2,7.53,-999.0,yes,yes,no,300234063324420,BD2GI,AOML,NORSEMAN_II,North
2016-06-23T04:59:31Z,1466657971,2016,5,0,175.208,175.208,59.0512,-167.4744,1007.7,7.53,-999.0,yes,yes,no,300234063324420,BD2GI,AOML,NORSEMAN_II,North
2016-06-23T06:00:00Z,1466661600,2016,6,0,175.25,175.25,59.0616,-167.46919,1007.6,7.53,-999.0,yes,yes,no,300234063324420,BD2GI,AOML,NORSEMAN_II,North
2016-06-23T07:00:28Z,1466665229,2016,7,0,175.292,175.292,59.068,-167.4554,1007.4,7.56,-999.0,yes,yes,no,300234063324420,BD2GI,AOML,NORSEMAN_II,North
2016-06-23T07:59:31Z,1466668771,2016,8,0,175.333,175.333,59.0704,-167.4386,1007.4,7.56,-999.0,yes,yes,no,300234063324420,BD2GI,AOML,NORSEMAN_II,North
2016-06-23T09:00:00Z,1466672400,2016,9,0,175.375,175.375,59.0682,-167.4194,1007.2,7.56,-999.0,yes,yes,no,300234063324420,BD2GI,AOML,NORSEMAN_II,North
2016-06-23T10:00:28Z,1466676029,2016,10,0,175.417,175.417,59.0612,-167.4024,1007.1,7.6,-999.0,yes,yes,no,300234063324420,BD2GI,AOML,NORSEMAN_II,North
2016-06-23T10:59:31Z,1466679571,2016,11,0,175.458,175.458,59.05,-167.3862,1007.0,7.6,-999.0,yes,yes,no,300234063324420,BD2GI,AOML,NORSEMAN_II,North
2016-06-23T12:00:00Z,1466683200,2016,12,0,175.5,175.5,59.0386,-167.3882,1007.1,7.56,-999.0,yes,yes,no,300234063324420,BD2GI,AOML,NORSEMAN_II,North
2016-06-23T13:00:28Z,1466686829,2016,13,0,175.542,175.542,59.0284,-167.3918,1007.1,7.53,-999.0,yes,yes,no,300234063324420,BD2GI,AOML,NORSEMAN_II,North
2016-06-23T13:59:31Z,1466690371,2016,14,0,175.583,175.583,59.021,-167.399,1007.2,7.49,-999.0,yes,yes,no,300234063324420,BD2GI,AOML,NORSEMAN_II,North
2016-06-23T15:00:00Z,1466694000,2016,15,0,175.625,175.625,59.0182,-167.4072,1007.2,7.49,-999.0,yes,yes,no,300234063324420,BD2GI,AOML,NORSEMAN_II,North
2016-06-23T16:00:28Z,1466697629,2016,16,0,175.667,175.667,59.0192,-167.41341,1007.6,7.46,-999.0,yes,yes,no,300234063324420,BD2GI,AOML,NORSEMAN_II,North
2016-06-23T16:59:31Z,1466701171,2016,17,0,175.708,175.708,59.0242,-167.4146,1007.7,7.46,-999.0,yes,yes,no,300234063324420,BD2GI,AOML,NORSEMAN_II,North
2016-06-23T18:00:00Z,1466704800,2016,18,0,175.75,175.75,59.031,-167.41119,1007.8,7.49,-999.0,yes,yes,no,300234063324420,BD2GI,AOML,NORSEMAN_II,North
2016-06-23T19:00:28Z,1466708429,2016,19,0,175.792,175.792,59.038,-167.40199,1008.2,7.53,-999.0,yes,yes,no,300234063324420,BD2GI,AOML,NORSEMAN_II,North
2016-06-23T19:59:31Z,1466711971,2016,20,0,175.833,175.833,59.044,-167.39121,1008.0,7.56,-999.0,yes,yes,no,300234063324420,BD2GI,AOML,NORSEMAN_II,North
2016-06-23T21:00:00Z,1466715600,2016,21,0,175.875,175.875,59.0474,-167.383,1008.4,7.6,-999.0,yes,yes,no,300234063324420,BD2GI,AOML,NORSEMAN_II,North
2016-06-23T22:00:28Z,1466719229,2016,22,0,175.917,175.917,59.0484,-167.3792,1008.4,7.6,-999.0,yes,yes,no,300234063324420,BD2GI,AOML,NORSEMAN_II,North
2016-06-23T22:59:31Z,1466722771,2016,23,0,175.958,175.958,59.047,-167.3842,1008.6,7.6,-999.0,yes,yes,no,300234063324420,BD2GI,AOML,NORSEMAN_II,North
2016-06-24T00:00:00Z,1466726400,2016,0,0,176.0,176.0,59.0452,-167.398,1008.5,7.56,-999.0,yes,yes,no,300234063324420,BD2GI,AOML,NORSEMAN_II,North
2016-06-24T01:00:28Z,1466730029,2016,1,0,176.042,176.042,59.0454,-167.41879,1008.0,7.56,-999.0,yes,yes,no,300234063324420,BD2GI,AOML,NORSEMAN_II,North
2016-06-24T01:59:31Z,1466733571,2016,2,0,176.083,176.083,59.049,-167.4438,1007.7,7.56,-999.0,yes,yes,no,300234063324420,BD2GI,AOML,NORSEMAN_II,North
2016-06-24T03:00:00Z,1466737200,2016,3,0,176.125,176.125,59.0564,-167.4688,1007.3,7.53,-999.0,yes,yes,no,300234063324420,BD2GI,AOML,NORSEMAN_II,North
2016-06-24T04:00:28Z,1466740829,2016,4,0,176.167,176.167,59.0666,-167.4884,1007.2,7.56,-999.0,yes,yes,no,300234063324420,BD2GI,AOML,NORSEMAN_II,North
2016-06-24T04:59:31Z,1466744371,2016,5,0,176.208,176.208,59.0788,-167.49899,1007.4,7.6,-999.0,yes,yes,no,300234063324420,BD2GI,AOML,NORSEMAN_II,North
2016-06-24T06:00:00Z,1466748000,2016,6,0,176.25,176.25,59.0908,-167.4986,1007.5,7.63,-999.0,yes,yes,no,300234063324420,BD2GI,AOML,NORSEMAN_II,North
2016-06-24T07:00:28Z,1466751629,2016,7,0,176.292,176.292,59.1,-167.48801,1008.2,7.63,-999.0,yes,yes,no,300234063324420,BD2GI,AOML,NORSEMAN_II,North
2016-06-24T07:59:31Z,1466755171,2016,8,0,176.333,176.333,59.1048,-167.4716,1008.5,7.63,-999.0,yes,yes,no,300234063324420,BD2GI,AOML,NORSEMAN_II,North
2016-06-24T09:00:00Z,1466758800,2016,9,0,176.375,176.375,59.105,-167.4514,1008.7,7.6,-999.0,yes,yes,no,300234063324420,BD2GI,AOML,NORSEMAN_II,North
2016-06-24T10:00:28Z,1466762429,2016,10,0,176.417,176.417,59.1004,-167.4332,1009.3,7.6,-999.0,yes,yes,no,300234063324420,BD2GI,AOML,NORSEMAN_II,North
2016-06-24T10:59:31Z,1466765971,2016,11,0,176.458,176.458,59.0908,-167.4138,1010.2,7.6,-999.0,yes,yes,no,300234063324420,BD2GI,AOML,NORSEMAN_II,North
2016-06-24T12:00:00Z,1466769600,2016,12,0,176.5,176.5,59.0804,-167.41341,1010.2,7.56,-999.0,yes,yes,no,300234063324420,BD2GI,AOML,NORSEMAN_II,North
2016-06-24T13:00:28Z,1466773229,2016,13,0,176.542,176.542,59.0694,-167.41521,1010.4,7.39,-999.0,yes,yes,no,300234063324420,BD2GI,AOML,NORSEMAN_II,North
2016-06-24T13:59:31Z,1466776771,2016,14,0,176.583,176.583,59.0604,-167.422,1010.6,7.36,-999.0,yes,yes,no,300234063324420,BD2GI,AOML,NORSEMAN_II,North
2016-06-24T15:00:00Z,1466780400,2016,15,0,176.625,176.625,59.053,-167.4324,1010.8,7.43,-999.0,yes,yes,no,300234063324420,BD2GI,AOML,NORSEMAN_II,North
2016-06-24T16:00:28Z,1466784029,2016,16,0,176.667,176.667,59.05,-167.4438,1011.2,7.39,-999.0,yes,yes,no,300234063324420,BD2GI,AOML,NORSEMAN_II,North
2016-06-24T16:59:31Z,1466787571,2016,17,0,176.708,176.708,59.0516,-167.45281,1011.6,7.36,-999.0,yes,yes,no,300234063324420,BD2GI,AOML,NORSEMAN_II,North
2016-06-24T18:00:00Z,1466791200,2016,18,0,176.75,176.75,59.0568,-167.4572,1011.9,7.36,-999.0,yes,yes,no,300234063324420,BD2GI,AOML,NORSEMAN_II,North
2016-06-24T19:00:28Z,1466794829,2016,19,0,176.792,176.792,59.0646,-167.45641,1012.1,7.39,-999.0,yes,yes,no,300234063324420,BD2GI,AOML,NORSEMAN_II,North
2016-06-24T19:59:31Z,1466798371,2016,20,0,176.833,176.833,59.0722,-167.45061,1012.3,7.39,-999.0,yes,yes,no,300234063324420,BD2GI,AOML,NORSEMAN_II,North
2016-06-24T21:00:00Z,1466802000,2016,21,0,176.875,176.875,59.0776,-167.44299,1012.8,7.43,-999.0,yes,yes,no,300234063324420,BD2GI,AOML,NORSEMAN_II,North
2016-06-24T22:00:28Z,1466805629,2016,22,0,176.917,176.917,59.0804,-167.4368,1013.2,7.49,-999.0,yes,yes,no,300234063324420,BD2GI,AOML,NORSEMAN_II,North
2016-06-24T22:59:31Z,1466809171,2016,23,0,176.958,176.958,59.0802,-167.4362,1013.5,7.49,-999.0,yes,yes,no,300234063324420,BD2GI,AOML,NORSEMAN_II,North
2016-06-25T00:00:00Z,1466812800,2016,0,0,177.0,177.0,59.0782,-167.4442,1013.8,7.49,-999.0,yes,yes,no,300234063324420,BD2GI,AOML,NORSEMAN_II,North
2016-06-25T01:00:28Z,1466816429,2016,1,0,177.042,177.042,59.0758,-167.4614,1014.2,7.53,-999.0,yes,yes,no,300234063324420,BD2GI,AOML,NORSEMAN_II,North
2016-06-25T01:59:31Z,1466819971,2016,2,0,177.083,177.083,59.0752,-167.48261,1014.4,7.53,-999.0,yes,yes,no,300234063324420,BD2GI,AOML,NORSEMAN_II,North
2016-06-25T03:00:00Z,1466823600,2016,3,0,177.125,177.125,59.0772,-167.508,1014.7,7.53,-999.0,yes,yes,no,300234063324420,BD2GI,AOML,NORSEMAN_II,North
2016-06-25T04:00:28Z,1466827229,2016,4,0,177.167,177.167,59.0822,-167.5332,1015.3,7.53,-999.0,yes,yes,no,300234063324420,BD2GI,AOML,NORSEMAN_II,North
2016-06-25T04:59:31Z,1466830771,2016,5,0,177.208,177.208,59.0904,-167.5536,1015.6,7.56,-999.0,yes,yes,no,300234063324420,BD2GI,AOML,NORSEMAN_II,North
2016-06-25T06:00:00Z,1466834400,2016,6,0,177.25,177.25,59.0996,-167.564,1016.1,7.6,-999.0,yes,yes,no,300234063324420,BD2GI,AOML,NORSEMAN_II,North
2016-06-25T07:00:28Z,1466838029,2016,7,0,177.292,177.292,59.1102,-167.56419,1016.4,7.63,-999.0,yes,yes,no,300234063324420,BD2GI,AOML,NORSEMAN_II,North
2016-06-25T07:59:31Z,1466841571,2016,8,0,177.333,177.333,59.118,-167.55141,1016.9,7.63,-999.0,yes,yes,no,300234063324420,BD2GI,AOML,NORSEMAN_II,North
2016-06-25T09:00:00Z,1466845200,2016,9,0,177.375,177.375,59.121,-167.5292,1017.3,7.63,-999.0,yes,yes,no,300234063324420,BD2GI,AOML,NORSEMAN_II,North
2016-06-25T10:00:28Z,1466848829,2016,10,0,177.417,177.417,59.1196,-167.5094,1017.8,7.63,-999.0,yes,yes,no,300234063324420,BD2GI,AOML,NORSEMAN_II,North
2016-06-25T10:59:31Z,1466852371,2016,11,0,177.458,177.458,59.1132,-167.4908,1018.1,7.6,-999.0,yes,yes,no,300234063324420,BD2GI,AOML,NORSEMAN_II,North
2016-06-25T12:00:00Z,1466856000,2016,12,0,177.5,177.5,59.1022,-167.47681,1018.3,7.56,-999.0,yes,yes,no,300234063324420,BD2GI,AOML,NORSEMAN_II,North
2016-06-25T13:00:28Z,1466859629,2016,13,0,177.542,177.542,59.0884,-167.47099,1018.4,7.56,-999.0,yes,yes,no,300234063324420,BD2GI,AOML,NORSEMAN_II,North
2016-06-25T13:59:31Z,1466863171,2016,14,0,177.583,177.583,59.075,-167.474,1018.9,7.56,-999.0,yes,yes,no,300234063324420,BD2GI,AOML,NORSEMAN_II,North
2016-06-25T15:00:00Z,1466866800,2016,15,0,177.625,177.625,59.063,-167.4834,1018.9,7.56,-999.0,yes,yes,no,300234063324420,BD2GI,AOML,NORSEMAN_II,North
2016-06-25T16:00:28Z,1466870429,2016,16,0,177.667,177.667,59.0558,-167.496,1019.3,7.56,-999.0,yes,yes,no,300234063324420,BD2GI,AOML,NORSEMAN_II,North
2016-06-25T16:59:31Z,1466873971,2016,17,0,177.708,177.708,59.054,-167.50681,1019.6,7.6,-999.0,yes,yes,no,300234063324420,BD2GI,AOML,NORSEMAN_II,North
2016-06-25T18:00:00Z,1466877600,2016,18,0,177.75,177.75,59.057,-167.5132,1020.0,7.6,-999.0,yes,yes,no,300234063324420,BD2GI,AOML,NORSEMAN_II,North
2016-06-25T19:00:28Z,1466881229,2016,19,0,177.792,177.792,59.0634,-167.51379,1020.1,7.6,-999.0,yes,yes,no,300234063324420,BD2GI,AOML,NORSEMAN_II,North
2016-06-25T19:59:31Z,1466884771,2016,20,0,177.833,177.833,59.07,-167.50661,1020.0,7.63,-999.0,yes,yes,no,300234063324420,BD2GI,AOML,NORSEMAN_II,North
2016-06-25T21:00:00Z,1466888400,2016,21,0,177.875,177.875,59.0766,-167.4966,1020.0,7.66,-999.0,yes,yes,no,300234063324420,BD2GI,AOML,NORSEMAN_II,North
2016-06-25T22:00:28Z,1466892029,2016,22,0,177.917,177.917,59.0806,-167.48379,1019.9,7.7,-999.0,yes,yes,no,300234063324420,BD2GI,AOML,NORSEMAN_II,North
2016-06-25T22:59:31Z,1466895571,2016,23,0,177.958,177.958,59.0812,-167.4736,1019.8,7.73,-999.0,yes,yes,no,300234063324420,BD2GI,AOML,NORSEMAN_II,North
2016-06-26T00:00:00Z,1466899200,2016,0,0,178.0,178.0,59.0794,-167.4682,1019.9,7.84,-999.0,yes,yes,no,300234063324420,BD2GI,AOML,NORSEMAN_II,North
2016-06-26T01:00:28Z,1466902829,2016,1,0,178.042,178.042,59.0754,-167.4706,1019.8,7.87,-999.0,yes,yes,no,300234063324420,BD2GI,AOML,NORSEMAN_II,North
2016-06-26T01:59:31Z,1466906371,2016,2,0,178.083,178.083,59.071,-167.48039,1019.9,7.87,-999.0,yes,yes,no,300234063324420,BD2GI,AOML,NORSEMAN_II,North
2016-06-26T03:00:00Z,1466910000,2016,3,0,178.125,178.125,59.0676,-167.4962,1019.9,7.87,-999.0,yes,yes,no,300234063324420,BD2GI,AOML,NORSEMAN_II,North
2016-06-26T04:00:28Z,1466913629,2016,4,0,178.167,178.167,59.0668,-167.51579,1019.8,7.87,-999.0,yes,yes,no,300234063324420,BD2GI,AOML,NORSEMAN_II,North
2016-06-26T04:59:31Z,1466917171,2016,5,0,178.208,178.208,59.0704,-167.53481,1019.8,7.87,-999.0,yes,yes,no,300234063324420,BD2GI,AOML,NORSEMAN_II,North
2016-06-26T06:00:00Z,1466920800,2016,6,0,178.25,178.25,59.078,-167.5468,1019.7,7.84,-999.0,yes,yes,no,300234063324420,BD2GI,AOML,NORSEMAN_II,North
2016-06-26T07:00:28Z,1466924429,2016,7,0,178.292,178.292,59.0878,-167.54781,1019.8,7.84,-999.0,yes,yes,no,300234063324420,BD2GI,AOML,NORSEMAN_II,North
2016-06-26T07:59:31Z,1466927971,2016,8,0,178.333,178.333,59.0972,-167.5372,1019.7,7.84,-999.0,yes,yes,no,300234063324420,BD2GI,AOML,NORSEMAN_II,North
2016-06-26T09:00:00Z,1466931600,2016,9,0,178.375,178.375,59.1036,-167.51739,1019.9,7.84,-999.0,yes,yes,no,300234063324420,BD2GI,AOML,NORSEMAN_II,North
2016-06-26T10:00:28Z,1466935229,2016,10,0,178.417,178.417,59.1056,-167.49381,1019.8,7.84,-999.0,yes,yes,no,300234063324420,BD2GI,AOML,NORSEMAN_II,North
2016-06-26T10:59:31Z,1466938771,2016,11,0,178.458,178.458,59.1038,-167.4686,1019.4,7.84,-999.0,yes,yes,no,300234063324420,BD2GI,AOML,NORSEMAN_II,North
2016-06-26T12:00:00Z,1466942400,2016,12,0,178.5,178.5,59.0976,-167.4464,1019.3,7.84,-999.0,yes,yes,no,300234063324420,BD2GI,AOML,NORSEMAN_II,North
2016-06-26T13:00:28Z,1466946029,2016,13,0,178.542,178.542,59.0874,-167.4312,1019.3,7.8,-999.0,yes,yes,no,300234063324420,BD2GI,AOML,NORSEMAN_II,North
2016-06-26T13:59:31Z,1466949571,2016,14,0,178.583,178.583,59.075,-167.42619,1019.1,7.8,-999.0,yes,yes,no,300234063324420,BD2GI,AOML,NORSEMAN_II,North
2016-06-26T15:00:00Z,1466953200,2016,15,0,178.625,178.625,59.0644,-167.4312,1018.9,7.8,-999.0,yes,yes,no,300234063324420,BD2GI,AOML,NORSEMAN_II,North
2016-06-26T16:00:28Z,1466956829,2016,16,0,178.667,178.667,59.057,-167.4424,1018.9,7.8,-999.0,yes,yes,no,300234063324420,BD2GI,AOML,NORSEMAN_II,North
2016-06-26T16:59:31Z,1466960371,2016,17,0,178.708,178.708,59.0546,-167.4556,1018.7,7.8,-999.0,yes,yes,no,300234063324420,BD2GI,AOML,NORSEMAN_II,North
2016-06-26T18:00:00Z,1466964000,2016,18,0,178.75,178.75,59.0578,-167.46519,1019.0,7.84,-999.0,yes,yes,no,300234063324420,BD2GI,AOML,NORSEMAN_II,North
2016-06-26T19:00:28Z,1466967629,2016,19,0,178.792,178.792,59.065,-167.4678,1019.0,7.87,-999.0,yes,yes,no,300234063324420,BD2GI,AOML,NORSEMAN_II,North
2016-06-26T19:59:31Z,1466971171,2016,20,0,178.833,178.833,59.0742,-167.4632,1019.0,7.9,-999.0,yes,yes,no,300234063324420,BD2GI,AOML,NORSEMAN_II,North
2016-06-26T21:00:00Z,1466974800,2016,21,0,178.875,178.875,59.083,-167.452,1018.7,7.94,-999.0,yes,yes,no,300234063324420,BD2GI,AOML,NORSEMAN_II,North
2016-06-26T22:00:28Z,1466978429,2016,22,0,178.917,178.917,59.09,-167.4372,1018.4,7.97,-999.0,yes,yes,no,300234063324420,BD2GI,AOML,NORSEMAN_II,North
2016-06-26T22:59:31Z,1466981971,2016,23,0,178.958,178.958,59.0942,-167.42239,1018.5,8.01,-999.0,yes,yes,no,300234063324420,BD2GI,AOML,NORSEMAN_II,North
2016-06-27T00:00:00Z,1466985600,2016,0,0,179.0,179.0,59.0954,-167.41119,1018.5,8.01,-999.0,yes,yes,no,300234063324420,BD2GI,AOML,NORSEMAN_II,North
2016-06-27T01:00:28Z,1466989229,2016,1,0,179.042,179.042,59.0942,-167.40559,1018.5,8.04,-999.0,yes,yes,no,300234063324420,BD2GI,AOML,NORSEMAN_II,North
2016-06-27T01:59:31Z,1466992771,2016,2,0,179.083,179.083,59.0914,-167.40739,1018.3,8.04,-999.0,yes,yes,no,300234063324420,BD2GI,AOML,NORSEMAN_II,North
2016-06-27T03:00:00Z,1466996400,2016,3,0,179.125,179.125,59.0892,-167.4162,1018.1,8.08,-999.0,yes,yes,no,300234063324420,BD2GI,AOML,NORSEMAN_II,North
2016-06-27T04:00:28Z,1467000029,2016,4,0,179.167,179.167,59.0882,-167.431,1017.8,8.08,-999.0,yes,yes,no,300234063324420,BD2GI,AOML,NORSEMAN_II,North
2016-06-27T04:59:31Z,1467003571,2016,5,0,179.208,179.208,59.09,-167.44859,1017.4,8.08,-999.0,yes,yes,no,300234063324420,BD2GI,AOML,NORSEMAN_II,North
2016-06-27T06:00:00Z,1467007200,2016,6,0,179.25,179.25,59.0958,-167.46539,1017.3,8.08,-999.0,yes,yes,no,300234063324420,BD2GI,AOML,NORSEMAN_II,North
2016-06-27T07:00:28Z,1467010829,2016,7,0,179.292,179.292,59.1058,-167.47321,1017.5,8.08,-999.0,yes,yes,no,300234063324420,BD2GI,AOML,NORSEMAN_II,North
2016-06-27T07:59:31Z,1467014371,2016,8,0,179.333,179.333,59.1176,-167.4698,1017.6,8.08,-999.0,yes,yes,no,300234063324420,BD2GI,AOML,NORSEMAN_II,North
2016-06-27T09:00:00Z,1467018000,2016,9,0,179.375,179.375,59.1274,-167.4566,1017.5,8.04,-999.0,yes,yes,no,300234063324420,BD2GI,AOML,NORSEMAN_II,North
2016-06-27T10:00:28Z,1467021629,2016,10,0,179.417,179.417,59.1348,-167.43401,1017.5,8.04,-999.0,yes,yes,no,300234063324420,BD2GI,AOML,NORSEMAN_II,North
2016-06-27T10:59:31Z,1467025171,2016,11,0,179.458,179.458,59.1376,-167.41,1017.7,8.01,-999.0,yes,yes,no,300234063324420,BD2GI,AOML,NORSEMAN_II,North
2016-06-27T12:00:00Z,1467028800,2016,12,0,179.5,179.5,59.1368,-167.386,1017.4,8.01,-999.0,yes,yes,no,300234063324420,BD2GI,AOML,NORSEMAN_II,North
2016-06-27T13:00:28Z,1467032429,2016,13,0,179.542,179.542,59.1318,-167.3674,1017.2,8.04,-999.0,yes,yes,no,300234063324420,BD2GI,AOML,NORSEMAN_II,North
2016-06-27T13:59:31Z,1467035971,2016,14,0,179.583,179.583,59.1232,-167.3582,1017.1,8.04,-999.0,yes,yes,no,300234063324420,BD2GI,AOML,NORSEMAN_II,North
2016-06-27T15:00:00Z,1467039600,2016,15,0,179.625,179.625,59.1144,-167.3584,1017.3,8.04,-999.0,yes,yes,no,300234063324420,BD2GI,AOML,NORSEMAN_II,North
2016-06-27T16:00:28Z,1467043229,2016,16,0,179.667,179.667,59.1066,-167.36881,1017.0,8.04,-999.0,yes,yes,no,300234063324420,BD2GI,AOML,NORSEMAN_II,North
2016-06-27T16:59:31Z,1467046771,2016,17,0,179.708,179.708,59.1032,-167.3848,1017.1,8.01,-999.0,yes,yes,no,300234063324420,BD2GI,AOML,NORSEMAN_II,North
2016-06-27T18:00:00Z,1467050400,2016,18,0,179.75,179.75,59.105,-167.4026,1017.1,8.01,-999.0,yes,yes,no,300234063324420,BD2GI,AOML,NORSEMAN_II,North
2016-06-27T19:00:28Z,1467054029,2016,19,0,179.792,179.792,59.112,-167.41721,1017.0,8.01,-999.0,yes,yes,no,300234063324420,BD2GI,AOML,NORSEMAN_II,North
2016-06-27T19:59:31Z,1467057571,2016,20,0,179.833,179.833,59.1228,-167.425,1017.0,8.01,-999.0,yes,yes,no,300234063324420,BD2GI,AOML,NORSEMAN_II,North
2016-06-27T21:00:00Z,1467061200,2016,21,0,179.875,179.875,59.1358,-167.4252,1017.1,8.04,-999.0,yes,yes,no,300234063324420,BD2GI,AOML,NORSEMAN_II,North
2016-06-27T22:00:28Z,1467064829,2016,22,0,179.917,179.917,59.1474,-167.4184,1017.1,8.04,-999.0,yes,yes,no,300234063324420,BD2GI,AOML,NORSEMAN_II,North
2016-06-27T22:59:31Z,1467068371,2016,23,0,179.958,179.958,59.156,-167.4068,1016.9,8.11,-999.0,yes,yes,no,300234063324420,BD2GI,AOML,NORSEMAN_II,North
2016-06-28T00:00:00Z,1467072000,2016,0,0,180.0,180.0,59.1606,-167.396,1016.7,8.21,-999.0,yes,yes,no,300234063324420,BD2GI,AOML,NORSEMAN_II,North
2016-06-28T01:00:28Z,1467075629,2016,1,0,180.042,180.042,59.162,-167.3886,1016.8,8.21,-999.0,yes,yes,no,300234063324420,BD2GI,AOML,NORSEMAN_II,North
2016-06-28T01:59:31Z,1467079171,2016,2,0,180.083,180.083,59.1602,-167.3876,1016.5,8.25,-999.0,yes,yes,no,300234063324420,BD2GI,AOML,NORSEMAN_II,North
2016-06-28T03:00:00Z,1467082800,2016,3,0,180.125,180.125,59.1564,-167.39461,1016.4,8.25,-999.0,yes,yes,no,300234063324420,BD2GI,AOML,NORSEMAN_II,North
2016-06-28T04:00:28Z,1467086429,2016,4,0,180.167,180.167,59.1532,-167.4084,1016.0,8.25,-999.0,yes,yes,no,300234063324420,BD2GI,AOML,NORSEMAN_II,North
2016-06-28T04:59:31Z,1467089971,2016,5,0,180.208,180.208,59.1518,-167.4272,1015.8,8.21,-999.0,yes,yes,no,300234063324420,BD2GI,AOML,NORSEMAN_II,North
2016-06-28T06:00:00Z,1467093600,2016,6,0,180.25,180.25,59.1534,-167.4478,1015.9,8.21,-999.0,yes,yes,no,300234063324420,BD2GI,AOML,NORSEMAN_II,North
2016-06-28T07:00:28Z,1467097229,2016,7,0,180.292,180.292,59.1582,-167.4648,1015.9,8.21,-999.0,yes,yes,no,300234063324420,BD2GI,AOML,NORSEMAN_II,North
2016-06-28T07:59:31Z,1467100771,2016,8,0,180.333,180.333,59.166,-167.47321,1016.1,8.21,-999.0,yes,yes,no,300234063324420,BD2GI,AOML,NORSEMAN_II,North
2016-06-28T09:00:00Z,1467104400,2016,9,0,180.375,180.375,59.175,-167.4716,1016.2,8.18,-999.0,yes,yes,no,300234063324420,BD2GI,AOML,NORSEMAN_II,North
2016-06-28T10:00:28Z,1467108029,2016,10,0,180.417,180.417,59.1832,-167.461,1016.0,8.18,-999.0,yes,yes,no,300234063324420,BD2GI,AOML,NORSEMAN_II,North
2016-06-28T10:59:31Z,1467111571,2016,11,0,180.458,180.458,59.1884,-167.44321,1016.0,8.18,-999.0,yes,yes,no,300234063324420,BD2GI,AOML,NORSEMAN_II,North
2016-06-28T12:00:00Z,1467115200,2016,12,0,180.5,180.5,59.1894,-167.4234,1015.9,8.18,-999.0,yes,yes,no,300234063324420,BD2GI,AOML,NORSEMAN_II,North
2016-06-28T13:00:28Z,1467118829,2016,13,0,180.542,180.542,59.1862,-167.40581,1015.9,8.18,-999.0,yes,yes,no,300234063324420,BD2GI,AOML,NORSEMAN_II,North
2016-06-28T13:59:31Z,1467122371,2016,14,0,180.583,180.583,59.1792,-167.39481,1015.6,8.14,-999.0,yes,yes,no,300234063324420,BD2GI,AOML,NORSEMAN_II,North
2016-06-28T15:00:00Z,1467126000,2016,15,0,180.625,180.625,59.1702,-167.393,1015.8,8.11,-999.0,yes,yes,no,300234063324420,BD2GI,AOML,NORSEMAN_II,North
2016-06-28T16:00:28Z,1467129629,2016,16,0,180.667,180.667,59.161,-167.4014,1016.0,8.04,-999.0,yes,yes,no,300234063324420,BD2GI,AOML,NORSEMAN_II,North
2016-06-28T16:59:31Z,1467133171,2016,17,0,180.708,180.708,59.1542,-167.41859,1016.1,7.94,-999.0,yes,yes,no,300234063324420,BD2GI,AOML,NORSEMAN_II,North
2016-06-28T18:00:00Z,1467136800,2016,18,0,180.75,180.75,59.1514,-167.4422,1016.1,7.87,-999.0,yes,yes,no,300234063324420,BD2GI,AOML,NORSEMAN_II,North
2016-06-28T19:00:28Z,1467140429,2016,19,0,180.792,180.792,59.154,-167.4658,1016.3,7.84,-999.0,yes,yes,no,300234063324420,BD2GI,AOML,NORSEMAN_II,North
2016-06-28T19:59:31Z,1467143971,2016,20,0,180.833,180.833,59.1614,-167.4872,1016.5,7.87,-999.0,yes,yes,no,300234063324420,BD2GI,AOML,NORSEMAN_II,North
2016-06-28T21:00:00Z,1467147600,2016,21,0,180.875,180.875,59.1724,-167.5002,1016.6,7.94,-999.0,yes,yes,no,300234063324420,BD2GI,AOML,NORSEMAN_II,North
2016-06-28T22:00:28Z,1467151229,2016,22,0,180.917,180.917,59.1848,-167.5036,1016.6,7.97,-999.0,yes,yes,no,300234063324420,BD2GI,AOML,NORSEMAN_II,North
2016-06-28T22:59:31Z,1467154771,2016,23,0,180.958,180.958,59.1966,-167.49921,1016.6,8.01,-999.0,yes,yes,no,300234063324420,BD2GI,AOML,NORSEMAN_II,North
2016-06-29T00:00:00Z,1467158400,2016,0,0,181.0,181.0,59.206,-167.4882,1016.5,8.01,-999.0,yes,yes,no,300234063324420,BD2GI,AOML,NORSEMAN_II,North
2016-06-29T01:00:28Z,1467162029,2016,1,0,181.042,181.042,59.2108,-167.476,1016.4,8.01,-999.0,yes,yes,no,300234063324420,BD2GI,AOML,NORSEMAN_II,North
2016-06-29T01:59:31Z,1467165571,2016,2,0,181.083,181.083,59.211,-167.46719,1016.1,7.97,-999.0,yes,yes,no,300234063324420,BD2GI,AOML,NORSEMAN_II,North
2016-06-29T03:00:00Z,1467169200,2016,3,0,181.125,181.125,59.2074,-167.4646,1015.9,7.94,-999.0,yes,yes,no,300234063324420,BD2GI,AOML,NORSEMAN_II,North
2016-06-29T04:00:28Z,1467172829,2016,4,0,181.167,181.167,59.2016,-167.46899,1016.0,7.87,-999.0,yes,yes,no,300234063324420,BD2GI,AOML,NORSEMAN_II,North
2016-06-29T04:59:31Z,1467176371,2016,5,0,181.208,181.208,59.1952,-167.4808,1016.0,7.84,-999.0,yes,yes,no,300234063324420,BD2GI,AOML,NORSEMAN_II,North
2016-06-29T06:00:00Z,1467180000,2016,6,0,181.25,181.25,59.1904,-167.4968,1015.9,7.84,-999.0,yes,yes,no,300234063324420,BD2GI,AOML,NORSEMAN_II,North
2016-06-29T07:00:28Z,1467183629,2016,7,0,181.292,181.292,59.189,-167.5136,1016.0,7.87,-999.0,yes,yes,no,300234063324420,BD2GI,AOML,NORSEMAN_II,North
2016-06-29T07:59:31Z,1467187171,2016,8,0,181.333,181.333,59.191,-167.5264,1015.8,7.9,-999.0,yes,yes,no,300234063324420,BD2GI,AOML,NORSEMAN_II,North